1389707430946,0.000160404
1389707490946,0.000160388
1389707550946,0.000161185
1389707610946,0.000161747
1389707670946,0.000160412
1389707730946,0.000160606
1389707790946,0.000161935
1389707850946,0.000160338
1389707910946,0.000160334
1389707970946,0.000161079
1389708030957,0.000160503
1389708090957,0.000161617
1389708150957,0.000161051
1389708210957,0.000161068
1389708270957,0.000160475
1389708330957,0.000161090
1389708390957,0.000160416
1389708450957,0.000160264
1389708510957,0.000158773
1389708570957,0.000159347
1389708630957,0.000160270
1389708690957,0.000161982
1389708750957,0.000162326
1389708810957,0.000161064
1389708870957,0.000161271
1389708930957,0.000160868
1389708990957,0.000162135
1389709050957,0.000159210
1389709110957,0.000161369
1389709170957,0.000161645
1389709230957,0.000162451
1389709290957,0.000161432
1389709350957,0.000160925
1389709410957,0.000162083
1389709470957,0.000161266
1389709530957,0.000160347
1389709590957,0.000161939
1389709650957,0.000160330
1389709710957,0.000160260
1389709770957,0.000160069
1389709830957,0.000160969
1389709890957,0.000161039
1389709950957,0.000162223
1389710010957,0.000159818
1389710070957,0.000161077
1389710130957,0.000161231
1389710190957,0.000161942
1389710250957,0.000161177
1389710310957,0.000161231
1389710370957,0.000162642
1389710430957,0.000165389
1389710490957,0.000162203
1389710550957,0.000161425
1389710610957,0.000162378
1389710670957,0.000162276
1389710730957,0.000163924
1389710790957,0.000161708
1389710850957,0.000161029
1389710910957,0.000160694
1389710970957,0.000159200
1389711030957,0.000160056
1389711090957,0.000161326
1389711150957,0.000161192
1389711210957,0.000160838
1389711270957,0.000160611
1389711330957,0.000162294
1389711390957,0.000162295
1389711450957,0.000161789
1389711510957,0.000161218
1389711570957,0.000160323
1389711630967,0.000161871
1389711690967,0.000160017
1389711750967,0.000160668
1389711810967,0.000162379
1389711870967,0.000162436
1389711930967,0.000163291
1389711990967,0.000162928
1389712050967,0.000161488
1389712110967,0.000162567
1389712170967,0.000163407
1389712230967,0.000163761
1389712290967,0.000163118
1389712350967,0.000163011
1389712410967,0.000163575
1389712470967,0.000163833
1389712530967,0.000162680
1389712590967,0.000163172
1389712650967,0.000162326
1389712710967,0.000163645
1389712770967,0.000162683
1389712830967,0.000162968
1389712890967,0.000162892
1389712950967,0.000162338
1389713010967,0.000162771
1389713070967,0.000161838
1389713130967,0.000162888
1389713190967,0.000163480
1389713250967,0.000164180
1389713310967,0.000161905
1389713370967,0.000162612
1389713430967,0.000163831
1389713490967,0.000162365
1389713550967,0.000162045
1389713610967,0.000161032
1389713670967,0.000160671
1389713730967,0.000162297
1389713790967,0.000161634
1389713850967,0.000160999
1389713910967,0.000161508
1389713970967,0.000160419
1389714030967,0.000160506
1389714090967,0.000159935
1389714150967,0.000161452
1389714210967,0.000161241
1389714270967,0.000160539
1389714330967,0.000161614
1389714390967,0.000161306
1389714450967,0.000159900
1389714510967,0.000161473
1389714570967,0.000159875
1389714630967,0.000161319
1389714690967,0.000159867
1389714750967,0.000159837
1389714810967,0.000158685
1389714870967,0.000161818
1389714930967,0.000160202
1389714990967,0.000161233
1389715050967,0.000162530
1389715110967,0.000167327
1389715170967,0.000174990
1389715230978,0.000174330
1389715290978,0.000183691
1389715350978,0.000189720
1389715410978,0.000186846
1389715470978,0.000179437
1389715530978,0.000170285
1389715590978,0.000169503
1389715650978,0.000168962
1389715710978,0.000167313
1389715770978,0.000167457
1389715830978,0.000167134
1389715890978,0.000166266
1389715950978,0.000167656
1389716010978,0.000163985
1389716070978,0.000166690
1389716130978,0.000166168
1389716190978,0.000164090
1389716250978,0.000163742
1389716310978,0.000162832
1389716370978,0.000162931
1389716430978,0.000163226
1389716490978,0.000163241
1389716550978,0.000162830
1389716610978,0.000161282
1389716670978,0.000161859
1389716730978,0.000162126
1389716790978,0.000160982
1389716850978,0.000161000
1389716910978,0.000162139
1389716970978,0.000161801
1389717030978,0.000161785
1389717090978,0.000162827
1389717150978,0.000162516
1389717210978,0.000162502
1389717270978,0.000160665
1389717330978,0.000161852
1389717390978,0.000161205
1389717450978,0.000163693
1389717510978,0.000161639
1389717570978,0.000161935
1389717630978,0.000162101
1389717690978,0.000161762
1389717750978,0.000162401
1389717810978,0.000161224
1389717870978,0.000161859
1389717930978,0.000161543
1389717990978,0.000161689
1389718050978,0.000161469
1389718110978,0.000162357
1389718170978,0.000160505
1389718230978,0.000161998
1389718290978,0.000161059
1389718350978,0.000161668
1389718410978,0.000161477
1389718470978,0.000161710
